Weather History for EGNX - November, 2012

Change the Weather History Date:

Thursday, November 15, 2012

  Actual Average Record
Temperature  
Mean Temperature 42 °F -  
Max Temperature 46 °F 45 °F 57 °F (1997)
Min Temperature 39 °F 36 °F 28 °F (2007)
Degree Days  
Heating Degree Days 22    
Moisture  
Dew Point 40 °F    
Average Humidity 91    
Maximum Humidity 100    
Minimum Humidity 81    
Precipitation  
Precipitation 0.00 in - - ()
Sea Level Pressure  
Sea Level Pressure 30.18 in    
Wind  
Wind Speed 4 mph ()    
Max Wind Speed 12 mph    
Max Gust Speed -    
Visibility 2.4 miles    
Events Fog    
Averages and records for this station are not official NWS values.
T = Trace of Precipitation, MM = Missing Value Source: Averaged Metar Reports

Daily Weather History Graph

Daily Weather History Graph

Search for Another Location

Airport or City:

Trip Planner

Search our weather history database for the weather conditions in past years. The results will help you decide how hot, cold, wet, or windy it might be!

Date:

Astronomy

Nov. 15, 2012 Rise Set
Actual Time 7:28 AM GMT 4:10 PM GMT
Civil Twilight 6:50 AM GMT 4:48 PM GMT
Nautical Twilight 6:08 AM GMT 5:30 PM GMT
Astronomical Twilight 5:27 AM GMT 6:11 PM GMT
Moon 9:19 AM GMT (11/15) 5:35 PM GMT (11/15)
Length of Visible Light 9h 58m
Length of Day
8h 41m
Waxing Crescent, 4% of the Moon is Illuminated
Nov 15
Waxing Crescent
Nov 20
First Quarter
Nov 28
Full
Dec 6
Last Quarter
Dec 13
New

Hourly Weather History & Observations

Time (GMT) Temp. Windchill Dew Point Humidity Pressure Visibility Wind Dir Wind Speed Gust Speed Precip Events Conditions
12:20 AM 46.4 °F - 44.6 °F 93% 30.27 in 4.3 mi Variable 2.3 mph - N/A   Scattered Clouds
12:50 AM 44.6 °F - 42.8 °F 93% 30.27 in 3.1 mi Variable 2.3 mph - N/A Fog Fog
1:20 AM 44.6 °F 43.1 °F 42.8 °F 93% 30.27 in 1.6 mi SW 3.5 mph - N/A Fog Patches of Fog
1:50 AM 44.6 °F - 42.8 °F 93% 30.24 in 1.2 mi Variable 2.3 mph - N/A   Scattered Clouds
2:20 AM 42.8 °F 39.3 °F 41.0 °F 93% 30.24 in 0.2 mi SE 5.8 mph - N/A Fog Fog
2:50 AM 41.0 °F 38.0 °F 39.2 °F 93% 30.24 in 0.1 mi SSE 4.6 mph - N/A Fog Fog
3:20 AM 41.0 °F 38.0 °F 39.2 °F 93% 30.24 in 0.1 mi South 4.6 mph - N/A Fog Fog
3:50 AM 41.0 °F 38.0 °F 39.2 °F 93% 30.24 in 0.1 mi South 4.6 mph - N/A Fog Fog
4:20 AM 41.0 °F 38.0 °F 39.2 °F 93% 30.24 in 0.1 mi SSW 4.6 mph - N/A Fog Fog
4:50 AM 41.0 °F 39.0 °F 39.2 °F 93% 30.24 in 0.2 mi Variable 3.5 mph - N/A Fog Fog
5:20 AM 41.0 °F - 39.2 °F 93% 30.24 in 0.1 mi Variable 2.3 mph - N/A Fog Fog
5:50 AM 41.0 °F - 39.2 °F 93% 30.24 in 0.1 mi Variable 2.3 mph - N/A Fog Fog
6:20 AM 39.2 °F 35.9 °F 39.2 °F 100% 30.21 in 0.1 mi South 4.6 mph - N/A Fog Fog
6:50 AM 41.0 °F - 39.2 °F 93% 30.24 in 0.1 mi Variable 2.3 mph - N/A Fog Fog
7:20 AM 41.0 °F - 39.2 °F 93% 30.24 in 0.1 mi Variable 2.3 mph - N/A Fog Fog
7:50 AM 41.0 °F - 39.2 °F 93% 30.24 in 0.1 mi Calm Calm - N/A Fog Fog
8:20 AM 41.0 °F - 39.2 °F 93% 30.24 in 0.1 mi Variable 2.3 mph - N/A Fog Fog
8:50 AM 41.0 °F - 39.2 °F 93% 30.24 in 0.2 mi Calm Calm - N/A Fog Fog
9:20 AM 41.0 °F - 39.2 °F 93% 30.24 in 0.2 mi Calm Calm - N/A Fog Fog
9:50 AM 41.0 °F - 41.0 °F 100% 30.24 in 0.2 mi ENE 2.3 mph - N/A Fog Fog
10:20 AM 42.8 °F - 42.8 °F 100% 30.21 in 0.2 mi Variable 2.3 mph - N/A Fog Fog
10:50 AM 44.6 °F 42.2 °F 42.8 °F 93% 30.21 in 0.2 mi SSE 4.6 mph - N/A Fog Fog
11:20 AM 44.6 °F 41.4 °F 42.8 °F 93% 30.21 in 0.2 mi SSE 5.8 mph - N/A Fog Fog
11:50 AM 44.6 °F 43.1 °F 42.8 °F 93% 30.18 in 0.6 mi Variable 3.5 mph - N/A Fog Fog
12:20 PM 46.4 °F 43.5 °F 44.6 °F 93% 30.18 in 3.1 mi SE 5.8 mph - N/A   Scattered Clouds
12:50 PM 44.6 °F 40.7 °F 44.6 °F 100% 30.18 in 2.5 mi SW 6.9 mph - N/A   Scattered Clouds
1:20 PM 46.4 °F 44.3 °F 44.6 °F 93% 30.18 in 3.7 mi SW 4.6 mph - N/A   Scattered Clouds
1:50 PM 46.4 °F 44.3 °F 41.0 °F 81% 30.15 in 3.7 mi SSW 4.6 mph - N/A   Scattered Clouds
2:20 PM 44.6 °F 41.4 °F 41.0 °F 87% 30.15 in 3.1 mi South 5.8 mph - N/A   Partly Cloudy
2:50 PM 44.6 °F 40.2 °F 41.0 °F 87% 30.15 in 2.2 mi SSW 8.1 mph - N/A   Mostly Cloudy
3:20 PM 42.8 °F 38.0 °F 41.0 °F 93% 30.12 in 1.9 mi South 8.1 mph - N/A   Mostly Cloudy
3:50 PM 42.8 °F 40.1 °F 39.2 °F 87% 30.12 in 2.5 mi South 4.6 mph - N/A   Mostly Cloudy
4:20 PM 42.8 °F 38.0 °F 39.2 °F 87% 30.12 in 2.5 mi South 8.1 mph - N/A   Mostly Cloudy
4:50 PM 42.8 °F 38.0 °F 39.2 °F 87% 30.12 in 2.5 mi SSW 8.1 mph - N/A   Mostly Cloudy
5:20 PM 41.0 °F 35.8 °F 39.2 °F 93% 30.12 in 3.1 mi SSW 8.1 mph - N/A   Mostly Cloudy
5:50 PM 41.0 °F 35.2 °F 37.4 °F 87% 30.12 in 4.3 mi SSW 9.2 mph - N/A   Mostly Cloudy
6:20 PM 41.0 °F 34.7 °F 37.4 °F 87% 30.12 in 4.3 mi SW 10.4 mph - N/A   Mostly Cloudy
6:50 PM 41.0 °F 35.2 °F 37.4 °F 87% 30.12 in 4.3 mi SW 9.2 mph - N/A   Mostly Cloudy
7:20 PM 41.0 °F 36.4 °F 37.4 °F 87% 30.12 in 5.0 mi SSW 6.9 mph - N/A   Mostly Cloudy
7:50 PM 41.0 °F 34.3 °F 37.4 °F 87% 30.12 in 5.0 mi SW 11.5 mph - N/A   Mostly Cloudy
8:20 PM 41.0 °F 35.2 °F 37.4 °F 87% 30.09 in 5.6 mi SW 9.2 mph - N/A   Mostly Cloudy
8:50 PM 41.0 °F 35.2 °F 37.4 °F 87% 30.09 in 5.6 mi SW 9.2 mph - N/A   Mostly Cloudy
9:20 PM 41.0 °F 35.2 °F 35.6 °F 81% 30.09 in 5.6 mi SW 9.2 mph - N/A   Mostly Cloudy
9:50 PM 41.0 °F 34.7 °F 37.4 °F 87% 30.09 in 5.6 mi SW 10.4 mph - N/A   Mostly Cloudy
10:20 PM 41.0 °F 36.4 °F 37.4 °F 87% 30.09 in 5.6 mi SW 6.9 mph - N/A   Mostly Cloudy
10:50 PM 42.8 °F 38.0 °F 37.4 °F 81% 30.06 in 6.2 mi SW 8.1 mph - N/A   Mostly Cloudy
11:20 PM 42.8 °F 38.6 °F 37.4 °F 81% 30.06 in 6.2 mi SW 6.9 mph - N/A   Mostly Cloudy
11:50 PM 42.8 °F 38.6 °F 37.4 °F 81% 30.06 in 6.2 mi SW 6.9 mph - N/A   Mostly Cloudy